Ana Sayfa
METAR-TAF:

METAR-TAF

Havaalanları :

Llano Municipal Airport

Llano, Teksas, Amerika Birleşik Devletleri

Enlem: 30-47-01N, Boylam: 098-39-43W, yükseklik: 336 m

Güncel hava durumu gözlemi

Rapor saat 16:10 UTC de 20 dakika önce yapıldı.
Rüzgar güneydan 9 kt
Sıcaklık 11°C
Nem 58%
Basınç 1029 hPa
Görüş mesafesi: 16.1 km
5000 ft yükseklikte parçalı çok bulutlu

METAR: KAQO 221610Z AUTO 19009KT 10SM BKN050 11/03 A3040 RMK AO2 PWINO

Saat: 10:30 (16:30 UTC)


TAF: eksik

4.000'den fazla havaalanı için hava durumu gözlemleri ve tahminleri (METAR ve TAF raporları).

Kullanılabilir istasyonlar harita üzerinde sarı ve kırmızı noktalarla gösterilir.

İstasyonun adını görmek için fareyi noktanın üzerinde gezdirin.

Sonrasında hava gözlem ve tahminlerini görmek için tıklayın.

Haritayı değiştirmek için: yaklaştırmak için siyah artı işaretli yeşil düğmeye ve uzaklaştırmak için de eksi işaretli düğmeye hızla tıklayın; bitişik haritalar için yeşil okları kullanın.


METAR-TAF: